Weather History for Chapel Hill, NC

Change the Weather History Date:

Tuesday, July 9, 2013

  Actual Average Record
Temperature  
Mean Temperature 80 °F -  
Max Temperature 88 °F 90 °F 105 °F (1977)
Min Temperature 72 °F 66 °F 50 °F (1979)
Cooling Degree Days 14    
Growing Degree Days 30 (Base 50)    
Moisture  
Dew Point 72 °F    
Average Humidity 82    
Maximum Humidity 91    
Minimum Humidity 65    
Precipitation  
Precipitation 0.05 in - - ()
Sea Level Pressure  
Sea Level Pressure 30.14 in    
Wind  
Wind Speed 1 mph (SE)    
Max Wind Speed 5 mph    
Max Gust Speed -    
Visibility 9 miles    
Events Rain , Thunderstorm    
Averages and records for this station are not official NWS values.
T = Trace of Precipitation, MM = Missing Value Source: NWS Daily Summary

Daily Weather History Graph

Daily Weather History Graph

Search for Another Location

Airport:

Trip Planner

Search our weather history database for the weather conditions in past years. The results will help you decide how hot, cold, wet, or windy it might be!

Date:

Astronomy

Jul. 09, 2013 Rise Set
Actual Time 6:07 AM EDT 8:35 PM EDT
Civil Twilight 5:37 AM EDT 9:04 PM EDT
Nautical Twilight 5:01 AM EDT 9:41 PM EDT
Astronomical Twilight 4:20 AM EDT 10:22 PM EDT
Moon 7:26 AM EDT (7/9) 9:16 PM EDT (7/9)
Length of Visible Light 15h 27m
Length of Day
14h 27m
New Moon, 2% of the Moon is Illuminated
Jul 9
New Moon
Jul 15
First Quarter
Jul 22
Full
Jul 29
Last Quarter
Aug 6
New

Hourly Weather History & Observations

Time (EDT) Temp. Heat Index Dew Point Humidity Pressure Visibility Wind Dir Wind Speed Gust Speed Precip Events Conditions
12:56 AM 73.0 °F - 69.1 °F 87% 30.16 in 10.0 mi Calm Calm - N/A   Clear
1:56 AM 73.0 °F - 69.1 °F 87% 30.15 in 10.0 mi Calm Calm - N/A   Clear
2:14 AM 72.0 °F - 69.1 °F 91% 30.17 in 10.0 mi Calm Calm - N/A   Partly Cloudy
2:26 AM 73.0 °F - 69.1 °F 87% 30.17 in 10.0 mi Variable 3.5 mph - N/A   Mostly Cloudy
2:34 AM 73.0 °F - 70.0 °F 90% 30.17 in 10.0 mi Calm Calm - N/A   Overcast
2:56 AM 73.0 °F - 70.0 °F 90% 30.15 in 10.0 mi Calm Calm - N/A   Overcast
3:23 AM 73.0 °F - 70.0 °F 90% 30.16 in 9.0 mi Calm Calm - N/A   Overcast
3:56 AM 73.0 °F - 70.0 °F 90% 30.14 in 9.0 mi Calm Calm - N/A   Mostly Cloudy
4:39 AM 73.9 °F - 71.1 °F 91% 30.16 in 9.0 mi Calm Calm - N/A   Overcast
4:56 AM 73.9 °F - 71.1 °F 91% 30.14 in 9.0 mi Variable 3.5 mph - N/A   Overcast
5:14 AM 73.9 °F - 71.1 °F 91% 30.16 in 9.0 mi Calm Calm - N/A   Overcast
5:56 AM 73.9 °F - 71.1 °F 91% 30.14 in 7.0 mi Calm Calm - N/A   Overcast
6:05 AM 73.9 °F - 71.1 °F 91% 30.16 in 7.0 mi Calm Calm - N/A   Overcast
6:56 AM 73.9 °F - 71.1 °F 91% 30.14 in 5.0 mi Calm Calm - N/A   Overcast
7:56 AM 75.0 °F - 72.0 °F 90% 30.14 in 6.0 mi SSW 4.6 mph - N/A   Overcast
8:19 AM 75.9 °F - 72.0 °F 87% 30.17 in 6.0 mi Calm Calm - N/A   Overcast
8:56 AM 75.9 °F - 72.0 °F 87% 30.15 in 7.0 mi Calm Calm - N/A   Overcast
9:10 AM 77.0 °F - 72.0 °F 84% 30.17 in 8.0 mi Calm Calm - N/A   Overcast
9:56 AM 79.0 °F - 72.0 °F 79% 30.16 in 9.0 mi Calm Calm - N/A   Overcast
10:38 AM 79.0 °F - 73.0 °F 82% 30.18 in 9.0 mi SSE 3.5 mph - N/A   Mostly Cloudy
10:56 AM 80.1 °F 84.2 °F 73.0 °F 79% 30.17 in 9.0 mi Variable 3.5 mph - N/A   Mostly Cloudy
11:56 AM 80.1 °F 84.2 °F 73.0 °F 79% 30.17 in 8.0 mi Calm Calm - N/A   Overcast
12:40 PM 82.9 °F 89.4 °F 73.9 °F 74% 30.18 in 9.0 mi Calm Calm - N/A   Overcast
12:56 PM 82.9 °F 89.4 °F 73.9 °F 74% 30.15 in 9.0 mi Variable 4.6 mph - N/A   Mostly Cloudy
1:56 PM 84.9 °F 91.4 °F 73.0 °F 67% 30.13 in 10.0 mi ESE 4.6 mph - N/A   Mostly Cloudy
2:30 PM 87.1 °F 95.4 °F 73.9 °F 65% 30.13 in 10.0 mi Variable 3.5 mph - N/A   Mostly Cloudy
2:56 PM 86.0 °F 93.0 °F 73.0 °F 65% 30.11 in 10.0 mi Variable 3.5 mph - N/A   Mostly Cloudy
3:26 PM 84.0 °F 90.2 °F 73.0 °F 69% 30.12 in 10.0 mi Variable 3.5 mph - N/A Thunderstorm Thunderstorm
3:41 PM 82.9 °F 88.8 °F 73.0 °F 72% 30.11 in 10.0 mi Calm Calm - N/A   Mostly Cloudy
3:52 PM 82.4 °F 88.2 °F 73.4 °F 74% 30.12 in 10.0 mi Variable 3.5 mph - N/A Thunderstorm Mostly Cloudy
3:56 PM 82.9 °F 89.4 °F 73.9 °F 74% 30.10 in 10.0 mi SSE 4.6 mph - N/A Thunderstorm Mostly Cloudy
4:07 PM 82.0 °F 87.4 °F 73.0 °F 74% 30.12 in 10.0 mi Variable 3.5 mph - N/A   Mostly Cloudy
4:56 PM 79.0 °F - 73.0 °F 82% 30.09 in 6.0 mi East 3.5 mph - 0.02 in Rain Light Rain
5:56 PM 79.0 °F - 73.0 °F 82% 30.08 in 10.0 mi Variable 3.5 mph - 0.02 in   Partly Cloudy
6:56 PM 80.1 °F 84.2 °F 73.0 °F 79% 30.07 in 10.0 mi Calm Calm - 0.01 in   Clear
7:56 PM 79.0 °F - 73.0 °F 82% 30.11 in 10.0 mi Calm Calm - N/A   Scattered Clouds
8:09 PM 79.0 °F - 72.0 °F 79% 30.12 in 10.0 mi Variable 3.5 mph - N/A   Mostly Cloudy
8:24 PM 79.0 °F - 72.0 °F 79% 30.12 in 10.0 mi Calm Calm - N/A   Mostly Cloudy
8:56 PM 77.0 °F - 69.1 °F 76% 30.10 in 10.0 mi Variable 4.6 mph - N/A   Clear
9:56 PM 75.0 °F - 68.0 °F 79% 30.12 in 10.0 mi Calm Calm - N/A   Clear
10:56 PM 73.9 °F - 68.0 °F 82% 30.12 in 10.0 mi Calm Calm - N/A   Clear
11:56 PM 73.9 °F - 68.0 °F 82% 30.12 in 10.0 mi Calm Calm - N/A   Partly Cloudy